Location: Mount Cross
(36.6390°N, 79.4878°W)
Time: 09:45:40
(UTC+00:00)

Courier 1B - Visible Passes

Search period start: 29 March 2023 00:00
Search period end: 08 April 2023 00:00
Orbit: 962 x 1209 km, 28.3° (Epoch: 28 March)

Date Brightness Start Highest point End Pass type
(mag) Time Alt. Az. Time Alt. Az. Time Alt. Az.
29 Mar 9.1 00:45:19 10° WSW 00:50:49 25° SSW 00:55:39 12° SSE visible
29 Mar 9.0 23:51:05 10° WSW 23:57:11 30° SSW 00:02:59 10° SE visible
30 Mar 9.7 01:47:59 10° SW 01:50:18 12° SSW 01:52:18 10° SSW visible
31 Mar 9.6 00:52:34 10° WSW 00:56:46 17° SSW 01:00:49 10° S visible
31 Mar 9.5 23:57:52 10° WSW 00:03:09 22° SSW 00:08:14 10° SSE visible
03 Apr 9.9 00:05:35 10° WSW 00:09:02 14° SSW 00:12:24 10° S visible
